Regional Weather Roundup
Issued by NWS Green Bay, WI

Home | Current Version | Previous Version | Text Only | Print | Product List | Glossary On
Versions: 1 2 3 4 5 6 7 8 9 10 11 12 13 14 15 16 17 18 19 20 21 22 23 24 25 26 27 28 29 30 31 32 33 34 35 36 37 38 39 40 41 42 43 44 45 46 47 48 49 50
000
ASUS43 KGRB 231711
RWRGRB

NORTH-CENTRAL AND NORTHEAST WISCONSIN REGIONAL WEATHER ROUNDUP
NATIONAL WEATHER SERVICE GREEN BAY WI
1200 PM CDT THU MAR 23 2017

WIZ005-009-010>012-018-019-231800-
NORTH CENTRAL WISCONSIN

CITY           SKY/WX    TMP DP  RH WIND       PRES   REMARKS
IRONWOOD       CLOUDY    34  18  52 S12       30.09F
MANITOWISH WTR CLOUDY    32  19  59 S16       30.11F
ARBOR VITAE    CLOUDY    32  20  61 S12G18    30.12F
EAGLE RIVER    CLOUDY    30  19  65 S10G17    30.15F
LAND O LAKES   CLOUDY    30  22  72 S13G18    30.15F
RHINELANDER    CLOUDY    32  20  61 S13G22    30.17S
PHILLIPS       CLOUDY    32  21  63 S12G20    30.12F
ANTIGO         CLOUDY    32  25  75 S14       30.20S
TOMAHAWK       CLOUDY    32  22  66 S7        30.16F
MERRILL        CLOUDY    35  22  60 S9G16     30.19S
$$

WIZ013-073-231800-
NORTHEAST WISCONSIN

CITY           SKY/WX    TMP DP  RH WIND       PRES   REMARKS
IRON MOUNTAIN  CLOUDY    30  21  69 SE10      30.22F
MARINETTE        N/A    N/A N/A N/A MISG        N/A
OCONTO         CLOUDY    35  26  69 S12       30.29F
$$

WIZ017-030-035>037-045-231800-
CENTRAL WISCONSIN

CITY           SKY/WX    TMP DP  RH WIND       PRES   REMARKS
MEDFORD        CLOUDY    32  21  63 S15G21    30.15S
WAUSAU         CLOUDY    35  21  56 SE17      30.19F
MOSINEE        CLOUDY    34  23  64 SE12G18   30.21F
MARSHFIELD     CLOUDY    35  21  56 S20G25    30.16F
WISC RAPIDS    CLOUDY    40  22  48 S13       30.21F
STEVENS POINT  CLOUDY    35  21  56 SE15G21   30.22F
WAUPACA        CLOUDY    40  23  50 SE14      30.26F
SHAWANO        CLOUDY    37  24  59 SE13G18   30.27F
CLINTONVILLE   CLOUDY    36  23  60 S15G22    30.27F
WAUTOMA        CLOUDY    40  22  48 SE16      30.24F
$$

WIZ038-039-048-051-231800-
FOX VALLEY

CITY           SKY/WX    TMP DP  RH WIND       PRES   REMARKS
NWS GREEN BAY  CLOUDY    36  27  69 S16       30.29F
APPLETON       CLOUDY    36  21  55 SE15G23   30.26
OSHKOSH        CLOUDY    39  24  55 S14G22    30.27F
FOND DU LAC    PTSUNNY   38  23  55 S21       30.28F
$$

WIZ022-050-052-231800-
EAST CENTRAL WISCONSIN

CITY           SKY/WX    TMP DP  RH WIND       PRES   REMARKS
EPHRAIM        CLOUDY    35  25  67 S13G22    30.30F
WASHINGTON ISL CLOUDY    35  29  79 S10G23    30.31F
STURGEON BAY   CLOUDY    35  25  66 S17G24    30.30F
MANITOWOC      CLOUDY    35  26  69 S23G30    30.32F
SHEBOYGAN      CLOUDY    35  25  66 S18G28    30.33F
$$

LMZ563-521-522-541>543-231800-
LAKESHORE

STATION/POSITION TIME  TEMP    WIND        PRES    VSBY  WAVE
                       AIR SEA DIR/SP/G                  HT/PER
                 (UTC) (F)     (DEG/KT/KT) (MB)    (MI)  (FT/S)
SHEBOYGAN LKSHOR 1700   34     160/ 22/ 25 1027.5F
KEWAUNEE LKSHORE 1648   34     170/ 22/ 25 1026.5F
NORTHPORT PIER   1640   35     160/ 12/ 17 1026.8F
SISTER BAY LKSHO 1621   37     180/ 18/ 23   N/A
CHAMBERS ISLAND  1640   36     150/  5/ 10 1026.1F
MENOMINEE LKSHOR 1648   35     150/ 13/ 20 1025.3F
$$



USA.gov is the U.S. government's official web portal to all federal, state and local government web resources and services.